User: anonymous   Login
Location: Howard City Library
(37.4684°N, 96.2639°W)
Time: 17:20:49
(UTC+00:00)
Language:

Cosmos 1707 Rocket - Orbit

View from above orbital plane
View from above orbital plane
View from above satellite
View from above satellite

Ground track
Ground track

The orbit data is extracted from the following two-line orbital elements,

1 16327U 85113B   20152.12386670  .00000085  00000-0  73372-5 0  9990
2 16327  82.5330 163.6814 0019882  34.2121  28.9458 14.83466104861831
Epoch (UTC): 31 May 2020 02:58:22
Eccentricity: 0.0019882
inclination: 82.5330°
perigee height: 604 km
apogee height: 632 km
right ascension of ascending node: 163.6814°
argument of perigee: 34.2121°
revolutions per day: 14.83466104
mean anomaly at epoch: 28.9458°
orbit number at epoch: 86183

The dashed part of the orbit path shows where the satellite is in the earth's shadow,  

DLR